Regional Weather Roundup
Issued by NWS

Home | Current Version | Previous Version | Graphics & Text | Print | Product List | Glossary On
Versions: 1 2 3 4 5 6 7 8 9 10 11 12 13 14 15 16 17 18 19 20 21 22 23 24 25 26 27 28 29 30 31 32 33 34 35 36 37 38 39 40 41 42 43 44 45 46 47 48 49 50
000
ASUS43 KIND 142159
RWRIN

WEATHER ROUNDUP FOR INDIANA
NATIONAL WEATHER SERVICE INDIANAPOLIS IN
500 PM EST THU DEC 14 2017

NOTE: "FAIR" INDICATES FEW OR NO CLOUDS BELOW 12,000 FEET WITH NO
SIGNIFICANT WEATHER AND/OR OBSTRUCTIONS TO VISIBILITY.

* - STATION DOES NOT REPORT WEATHER SUCH AS PRECIPITATION OR FOG.

+ - STATION NOT QUALITY CONTROLLED BY THE NATIONAL WEATHER SERVICE.
    USE DATA WITH CAUTION...ESPECIALLY DEWPOINT AND RELATIVE
    HUMIDITY OBSERVATIONS.

INZ001>003-010>013-019-020-142300-
NORTHWEST INDIANA

CITY           SKY/WX    TMP DP  RH WIND       PRES   REMARKS
GARY /AIRPORT/ MOCLDY    28  12  50 W5        30.07R WCI  23
KNOX *+        CLOUDY    25  16  68 SE5       30.06R WCI  19
LA PORTE +     CLOUDY    22  15  74 S5        30.06R WCI  15
MICHIGAN CITY+ LGT SNOW  25  19  80 S6        30.06R WCI  18
MONTICELLO +   CLOUDY    27  13  56 CALM      30.06R
RENSSELAER +   PTCLDY    28  16  59 S3        30.07R

$$

LMZ046-743>745-142300-
SOUTHERN LAKE MICHIGAN

STATION/POSITION TIME  TEMP    WIND        PRES    WAVE
                       AIR SEA DIR/SP/G            HT
                 (UTC) (F)     (DEG/KT/KT) (MB)    (FT)

$$

INZ004-005-014>016-021>024-142300-
NORTH CENTRAL INDIANA

CITY           SKY/WX    TMP DP  RH WIND       PRES   REMARKS
ELKHART        PTCLDY    19  10  68 CALM      30.05S
GOSHEN         PTCLDY    20  10  65 S5        30.05R WCI  13
PERU/GRISSOM   CLOUDY    26  12  56 CALM      30.05R
ROCHESTER +    CLOUDY    27  16  63 CALM      30.07R
SOUTH BEND     CLOUDY    21  15  78 S7        30.05S WCI  12
WARSAW +       CLOUDY    23  10  58 CALM      30.06R

$$

INZ006>009-017-018-025>027-142300-
NORTHEAST INDIANA

CITY           SKY/WX    TMP DP  RH WIND       PRES   REMARKS
AUBURN +       CLOUDY    21   9  58 CALM      30.06R
FORT WAYNE     CLOUDY    21  12  68 SW3       30.07R
KENDALLVILLE + CLOUDY    20   9  60 SW5       30.04R WCI  14

$$

INZ028-029-035-036-043>045-051>053-142300-
WEST CENTRAL INDIANA

CITY           SKY/WX    TMP DP  RH WIND       PRES   REMARKS
CRAWFORDSVL +  PTCLDY    28  12  51 CALM      30.06R
GREENCASTLE +  CLOUDY    28  10  47 CALM      30.06R
LAFAYETTE      CLOUDY    29  14  53 CALM      30.06R
TERRE HAUTE    CLOUDY    32  14  47 N3        30.07R

$$

INZ030>032-037>040-046>048-054>057-064-065-142300-
CENTRAL INDIANA

CITY           SKY/WX    TMP DP  RH WIND       PRES   REMARKS
COLUMBUS       CLEAR     27  10  50 NE5       30.08R WCI  21
FRANKFORT +    CLOUDY    31  14  48 CALM      30.06S
GREENWOOD *+   CLOUDY    31  13  46 CALM      30.06R
INDIANAPOLIS   MOCLDY    28  10  46 SE3       30.05R
-EAGLE CREEK   PTCLDY    30  11  45 CALM      30.05R
KOKOMO +       CLOUDY    27  15  61 CALM      30.07R
MT COMFORT *+  PTCLDY    28  16  59 CALM      30.06R
SHELBYVILLE    CLOUDY    28  13  53 SE3       30.06R
ZIONSVILLE +   CLOUDY    27  12  54 CALM      30.05R

$$

INZ033-034-041-042-049-050-058-059-142300-
EAST CENTRAL INDIANA

CITY           SKY/WX    TMP DP  RH WIND       PRES   REMARKS
MUNCIE         MOCLDY    27  12  53 NE5       30.05R WCI  22
RICHMOND +     CLOUDY    23  14  68 CALM      30.03R

$$

INZ060-061-067>069-081>083-085>088-142300-
SOUTHWEST INDIANA

CITY           SKY/WX    TMP DP  RH WIND       PRES   REMARKS
EVANSVILLE     CLOUDY    33  21  61 NW5       30.09R WCI  29
HUNTINGBURG +  CLOUDY    33  21  61 NW3       30.07R

$$

INZ062-063-066-070>080-084-089>092-142300-
SOUTH CENTRAL AND SOUTHEAST INDIANA

CITY           SKY/WX    TMP DP  RH WIND       PRES   REMARKS
BLOOMINGTON    CLEAR     31  13  47 CALM      30.04R
MADISON *+     CLEAR     32  16  51 CALM      30.06R
SEYMOUR +      CLOUDY    32  14  47 N6        30.07R WCI  26

$$





USA.gov is the U.S. government's official web portal to all federal, state and local government web resources and services.